www.pogodaiklimat.ru

Погода и климат >> Архив погоды >> Финляндия >> Аэропорт Рануа


ПОГОДА в Аэропорту Рануа

  • Прогноз погоды в Аэропорту Рануа
  • Монитор погоды в Аэропорту Рануа

АРХИВ ПОГОДЫ в Аэропорту Рануа

Время (UTC), дата Ветер
(напр.,м/с)
 
Видим.   Явления Облачность Т
(С)
Тd
(С)
f
(%)
Тe
(С)
Тes
(С)
Комфортность P
(гПа)
Po
(гПа)
Тmin
(С)
Tmax
(С)
R
(мм)
R24
(мм)
S
(см)
21 15.08 СЗ 2 300 м туман ясно +9.3 +9.3 100 +7 +7 1003.0 983.5
00 16.08 С 1 200 м туман ?/? +10.4 +10.4 100 +10 +10 1004.6 985.1
03 16.08 СЗ 1 5000 м дымка 10/10 50 м
[]
+11.1 +11.1 100 +11 +11 1005.8 986.4
06 16.08 С 2 20 км 9/9 200 м
[]
+12.8 +12.8 100 +12 +12 1007.1 987.8 +8.8 +13.7
09 16.08 Ю 2 35 км 10/10 600 м
[]
+14.5 +11.4 82 +14 +14 1008.5 989.2
12 16.08 ЮЗ 2 40 км 1/1 600 м
[]
+18.7 +10.5 59 +20 +26 1008.8 989.8
15 16.08 Ю 3 45 км 5/4 600 м
[]
+17.0 +11.5 70 +17 +18 1009.2 990.1
18 16.08 Ю 4 35 км 8/8 300 м
[]
+13.7 +11.9 89 +12 +12 1010.5 991.2 +12.8 +19.4
21 16.08 Ю 2 6000 м дымка ясно +9.3 +9.3 100 +7 +7 1011.3 991.6
00 17.08 Ю 3 45 км 9/0
[]
+8.7 +8.6 99 +6 +6 1011.6 991.8
03 17.08 ЮВ 2 40 км 6/3 1500 м
[]
+9.2 +8.6 96 +7 +7 1011.4 991.7
06 17.08 Ю 3 50 км 9/5 1500 м
[]
+12.8 +10.4 85 +11 +12 1010.8 991.4 +7.4 +13.7
09 17.08 Ю 5 40 км 9/9 600 м
[]
+17.2 +12.2 72 +17 +17 1010.2 991.1
12 17.08 Ю 3 35 км 9/9 300 м
[]
+16.9 +13.3 79 +17 +17 1010.7 991.6
15 17.08 ЮЗ 2 27 км слаб. ливневой дождь 9/9 600 м
[]
+17.3 +15.0 86 +18 +18 1010.1 991.0
18 17.08 ЮВ 2 13 км в посл. час дождь 6/6 1000 м
[]
+15.3 +14.8 97 +15 +15 1010.2 990.9 +12.8 +18.2 0.7
21 17.08 Ю 3 40 км 9/8 600 м
[]
+15.3 +14.2 93 +15 +15 1009.9 990.7
00 18.08 Ю 3 30 км слаб. ливневой дождь 9/8 300 м
[]
+14.8 +14.1 96 +14 +14 1010.7 991.4
03 18.08 Ю 3 28 км 8/8 200 м
[]
+13.5 +13.2 98 +12 +12 1010.7 991.4
06 18.08 Ю 5 40 км 6/6 300 м
[]
+16.0 +13.2 83 +15 +16 1010.9 991.7 +13.5 +16.0
09 18.08 ЮВ 5 45 км 6/6 600 м
[]
+19.0 +13.4 70 +20 +21 1010.4 991.4
12 18.08 Ю 1 30 км в посл. час дождь 9/8 1500 м
[]
+17.5 +15.6 89 +19 +20 1010.3 991.2
15 18.08 Ю 2 22 км в посл. час морось 9/9 1500 м
[]
+15.7 +15.3 97 +16 +16 1010.7 991.5
18 18.08 ЮВ 2 16 км в посл. час морось 9/9 1500 м
[]
+14.0 +13.9 99 +13 +13 1010.9 991.6 +14.0 +20.2 5
21 18.08 ЮВ 2 28 км 9/8 1500 м
[]
+13.7 +13.4 98 +13 +13 1010.6 991.2
00 19.08 ЮВ 2 50 км 9/9 1500 м
[]
+12.9 +11.1 89 +12 +12 1009.5 990.1
03 19.08 ЮВ 2 50 км 10/10 1500 м
[]
+12.6 +8.4 76 +12 +12 1008.2 988.8
06 19.08 ЮВ 3 45 км 9/6 1500 м
[]
+15.0 +9.5 70 +14 +15 1006.4 987.2 +12.4 +15.0 0.1
09 19.08 ЮВ 3 30 км слаб. ливневой дождь 9/9 2000 м
[]
+15.5 +10.9 74 +15 +16 1004.5 985.3
12 19.08 ЮВ 4 11 км слаб. дождь 10/10 600 м
[]
+13.9 +13.0 94 +12 +12 1002.9 983.7
15 19.08 Ю 5 27 км в посл. час морось 9/9 200 м
[]
+14.8 +14.5 98 +13 +13 1002.6 983.4
18 19.08 Ю 5 50 км 10/10 200 м
[]
+14.0 +13.6 97 +12 +12 1004.2 984.9 +13.6 +16.0 6
21 19.08 Ю 3 15 км ясно +11.5 +11.3 99 +10 +10 1005.9 986.4
00 20.08 Ю 3 9000 м дымка ясно +11.1 +11.1 100 +9 +9 1006.2 986.7
03 20.08 Ю 3 17 км 10/10 100 м
[]
+11.0 +11.0 100 +9 +9 1007.0 987.5
06 20.08 Ю 5 21 км 10/10 100 м
[]
+12.4 +12.1 98 +10 +10 1008.2 988.8 +10.7 +14.0
09 20.08 Ю 4 35 км 10/10 300 м
[]
+14.5 +12.8 90 +13 +13 1009.3 990.0
12 20.08 ЮЗ 6 35 км 9/9 600 м
[]
+16.0 +11.2 73 +15 +15 1010.6 991.3
15 20.08 ЮЗ 7 35 км 5/5 600 м
[]
+17.2 +11.0 67 +16 +16 1011.0 991.8
18 20.08 Ю 4 40 км ясно +13.7 +10.8 83 +12 +12 1012.7 993.3 +12.4 +17.5
21 20.08 Ю 3 24 км ясно +11.1 +10.6 97 +9 +9 1013.6 994.0
00 21.08 Ю 2 18 км 10/10 600 м
[]
+11.0 +10.8 99 +10 +10 1013.6 994.0
03 21.08 Ю 3 14 км 6/6 300 м
[]
+10.1 +10.0 99 +8 +8 1014.2 994.5
06 21.08 Ю 3 20 км 10/10 100 м
[]
+12.3 +11.4 94 +11 +11 1014.9 995.3 +10.1 +13.7
09 21.08 Ю 4 21 км 10/10 200 м
[]
+13.8 +12.7 93 +12 +12 1015.5 996.0
12 21.08 Ю 5 40 км 9/9 300 м
[]
+15.8 +11.9 78 +15 +15 1015.4 996.1
15 21.08 ЮЗ 4 35 км 3/1 300 м
[]
+16.1 +12.1 77 +15 +16 1015.6 996.3
18 21.08 Ю 2 35 км 8/8
[]
+13.0 +11.8 92 +12 +12 1015.8 996.3 +12.2 +16.9
21 21.08 Ю 2 8000 м дымка 9/9 200 м
[]
+10.8 +10.8 100 +9 +9 1016.1 996.5
00 22.08 Ю 3 9000 м дымка 9/9 50 м
[]
+11.7 +11.7 100 +10 +10 1015.5 995.9
03 22.08 Ю 2 14 км 9/9 100 м
[]
+11.8 +11.8 100 +11 +11 1015.0 995.4
06 22.08 Ю 3 35 км в посл. час морось 9/8 200 м
[]
+13.3 +12.4 94 +12 +12 1014.8 995.3 +9.5 +13.3 0.3
09 22.08 З 3 45 км 1/1 1000 м
[]
+18.0 +11.0 64 +18 +23 1014.4 995.3
12 22.08 ЮЗ 3 7000 м дождь 9/9 1000 м
[]
+15.4 +11.2 76 +15 +15 1014.7 995.4
15 22.08 ЮЗ 4 50 км 4/4 1000 м
[]
+15.9 +9.9 68 +15 +16 1015.5 996.1
18 22.08 ЮЗ 3 45 км слаб. дождь 9/5 1500 м
[]
+13.3 +11.0 86 +12 +12 1016.4 996.9 +13.2 +19.3 0.4

 

Местоположение метеостанции Аэропорт Рануа (Финляндия): широта 65.97 долгота 26.37 высота над уровнем моря 161 м.

В архиве по умолчанию представлена погода в Аэропорту Рануа за последнюю неделю. Архивные данные за месяц целиком и за предыдущие месяцы, начиная с января 2011 года, Вы можете получить, выбрав интересующий диапазон дат из раскрывающегося списка и нажав кнопку "Ввод!".


*Определитесь, кто Вы:
робот инопланетянин человек

Внимание! Время в таблицах - всемирное. Для получения местного времени необходимо прибавить поправку, которая равна 1 ч.

Смотрите также архив погоды в соседних городах и на ближайших метеорологических станциях:

Погода в Рованиеми (Финляндия) (66 км)
Погода в Пудасъярви (Финляндия) (69 км)
Погода в Рованиеми Апукка (Финляндия) (70 км)
Погода в Рованиеми аэропорту (Финляндия) (70 км)
Погода в Кеми аэропорту (Финляндия) (84 км)
Погода на Аэродроме Кемиярви (Финляндия) (91 км)
Погода в Кеми Айос (Финляндия) (91 км)
Погода в Тайвалкоски (Финляндия) (95 км)
Погода в Мелтосярви (Финляндия) (99 км)
Погода в Торнио (Финляндия) (101 км)

Пояснения к столбцам:

Ветер - указаны скорость ветра в м/с - средняя за 10 мин, порывы в срок и между сроками (в фигурных скобках) и направление, откуда дует ветер: С - северный, СВ - северо-восточный, В - восточный, ЮВ - юго-восточный, Ю - южный, ЮЗ - юго-западный, З - западный, СЗ - северо-западный.
Видимость - горизонтальная дальность видимости в метрах или километрах. При видимости от 1 до 10 км при отсутствии осадков обычно наблюдается дымка, при ухудшении видимости до 1 км и менее - туман. В сухую погоду видимость может ухудшаться дымом, пылью или мглою.
Явления - указаны атмосферные явления, наблюдавшиеся в срок или в последний час перед сроком; фигурными скобками обозначены явления, наблюдавшиеся между сроками (за 1-3 часа до срока); квадратными скобками обозначены град или гололедные отложения с указанием их диаметра в мм.
Облачность - указаны через наклонную черту общая и нижняя облачность в баллах и высота нижней границы облаков в метрах; квадратными скобками обозначены формы облаков: Ci - перистые, Cs - перисто-слоистые, Cc - перисто-кучевые, Ac - высококучевые, As - высокослоистые, Sc - слоисто-кучевые, Ns - слоисто-дождевые, Cu - кучевые, Cb - кучево-дождевые. Подробнее классификацию облаков см. в Атласе облаков (PDF).
T - Температура воздуха - температура, измеренная на высоте 2 м над землей.
Td - Температура точки росы - температура, при понижении до которой содержащийся в воздухе водяной пар достигнет насыщения.
f - Относительная влажность воздуха - влажноcть воздуха, измеренная на высоте 2 м над землей.
Te - Эффективная температура - температура, которую ощущает одетый по сезону человек в тени. Характеристика душности погоды. При расчете учитывается влияние влажности воздуха и скорости ветра на теплоощущения человека.
Tes - Эффективная температура на солнце - температура, которую ощущает человек, с поправкой на солнечный нагрев. Характеристика знойности погоды. Зависит от высоты солнца над горизонтом, облачности и скорости ветра. Ночью, в пасмурную погоду, а также при ветре 12 м/с и более поправка равна нулю.
P - Атмосферное давление - приведенное к уровню моря атмосферное давление.
Po - Атмосферное давление - измеренное на уровне метеостанции атмосферное давление.
Tmin - Минимальная температура - минимум температуры воздуха на высоте 2 м над землей.
Tmax - Максимальная температура - максимум температуры воздуха на высоте 2 м над землей.
R - Количество осадков - Количество выпавших осадков за период времени, мм. При наведении курсора мыши на число - период времени, за который выпало указанное количество осадков.
R24 - Количество осадков - Количество выпавших осадков за 24 часа, мм.
S - Снежный покров - Высота снежного покрова, см. При наведении курсора мыши на число - состояние снежного покрова и степень покрытия местности в баллах.